AirNav   $300 off a Bose A20 aviation headset
 
 539 users online  

4F2 Panola County Airport-Sharpe Field
Carthage, Texas, USA

GOING TO CARTHAGE?


FAA INFORMATION EFFECTIVE 28 FEBRUARY 2019

Location

FAA Identifier: 4F2
Lat/Long: 32-10-33.9000N / 094-17-55.7000W
32-10.565000N / 094-17.928333W
32.1760833 / -94.2988056
(estimated)
Elevation: 248 ft. / 75.6 m (surveyed)
Variation: 04E (1995)
From city: 2 miles E of CARTHAGE, TX
Time zone: UTC -6 (UTC -5 during Daylight Saving Time)
Zip code: 75633

Airport Operations

Airport use: Open to the public
Activation date: 09/1963
Control tower: no
ARTCC: FORT WORTH CENTER
FSS: FORT WORTH FLIGHT SERVICE STATION
NOTAMs facility: FTW (NOTAM-D service available)
Attendance: MON-FRI 0800-1700
Wind indicator: lighted
Segmented circle: yes
Lights: MIRL RY 17/35 PRESET LOW INTST; TO INCR INTST ACTVT - CTAF.
Beacon: white-green (lighted land airport)
Operates sunset to sunrise.

Airport Communications

CTAF/UNICOM: 122.8
LONGVIEW APPROACH: 119.9 124.275
LONGVIEW DEPARTURE: 119.9 124.275
  • WHEN LONGVIEW (GGG) APC/DEP IS CLSD, APCH/DEP SVC IS PRVDD BY BARKSDALE (BAD) ON FREQS 119.9/335.55.

Nearby radio navigation aids

VOR radial/distance  VOR name  Freq  Var
GGGr115/27.2GREGG COUNTY VORTAC112.3007E
EMGr242/38.1ELM GROVE VORTAC111.2007E

 
NDB name  Hdg/Dist  Freq  Var  ID
CARTHAGEat field33204ERPF .-. .--. ..-.
AMASON336/21.934104ECZJ -.-. --.. .---
MANSFIELD280/28.041404EMSD -- ... -..
NACOGDOCHES028/37.839105EGXD --. -..- -..

Airport Services

Fuel available: 100LL
FUEL AVBL 24 HRS SELF-SERVE WITH MAJOR CREDIT CARD.
Parking: tiedowns
Bottled oxygen: NONE
Bulk oxygen: NONE

Runway Information

Runway 17/35

Dimensions: 4000 x 75 ft. / 1219 x 23 m
Surface: asphalt, in good condition
Runway edge lights: medium intensity
RUNWAY 17  RUNWAY 35
Latitude: 32-10.894252N32-10.235000N
Longitude: 094-17.943713W094-17.913840W
Elevation: 244.1 ft.248.0 ft.
Gradient: 0.1%0.1%
Traffic pattern: leftleft
Runway heading: 174 magnetic, 178 true354 magnetic, 358 true
Markings: nonprecision, in fair conditionnonprecision, in fair condition
Visual slope indicator: 4-light PAPI on left (3.00 degrees glide path)4-light PAPI on left (4.00 degrees glide path)
Touchdown point: yes, no lightsyes, no lights
Obstructions: 90 ft. trees, 2850 ft. from runway, 29:1 slope to clear82 ft. trees, 1932 ft. from runway, 101 ft. right of centerline, 21:1 slope to clear

Airport Ownership and Management from official FAA records

Ownership: Publicly-owned
Owner: PANOLA CO
PANOLA CO. COURTHOUSE
CARTHAGE, TX 75633
Phone 903-693-0391
EMERGENCY PHONE NRS: 903-754-2741 (CELL) OR SHERIFF'S OFFICE 903-693-0333.
Manager: JOHN DE PRESCA, JR.
1305 HIGHWAY 79 NORTH
CARTHAGE, TX 75633
Phone 903-693-7856

Airport Operational Statistics

Aircraft based on the field: 12
Single engine airplanes: 10
Helicopters: 1
Ultralights: 1
    
Aircraft operations: avg 27/week *
71% transient general aviation
29% local general aviation
* for 12-month period ending 06 September 2018

Additional Remarks

DEER ON & INVOF RY.
NMRS MISSING RWY LIGHTS.

Instrument Procedures

NOTE: All procedures below are presented as PDF files. If you need a reader for these files, you should download the free Adobe Reader.

NOT FOR NAVIGATION. Please procure official charts for flight.
FAA instrument procedures published for use from 28 February 2019 at 0901Z to 28 March 2019 at 0900Z.

 
IAPs - Instrument Approach Procedures
RNAV (GPS) RWY 17   download (159KB)
RNAV (GPS) RWY 35   download (171KB)
NDB RWY 35   download (164KB)

Other nearby airports with instrument procedures:

KASL - Harrison County Airport (21 nm N)
F17 - Center Municipal Airport (22 nm S)
KGGG - East Texas Regional Airport (24 nm NW)
3F3 - C E 'Rusty' Williams Airport (28 nm E)
KRFI - Rusk County Airport (28 nm W)
 
Loc | Ops | Rwys | IFR | FBO | Links
Com | Nav | Svcs | Stats | Notes
Area around 4F2 (Panola County Airport-Sharpe Field)
 
Road maps at: MapQuest Bing Google
 
Aerial photo
WARNING: Photo may not be current or correct
Aerial photo of 4F2 (Panola County Airport-Sharpe Field)
Photo taken 28-Jan-2018
looking ​south from 4,500 ft.

Do you have a better or more recent aerial photo of Panola County Airport-Sharpe Field that you would like to share? If so, please send us your photo.

 
Sectional chart

 
Airport distance calculator
Flying to Panola County Airport-Sharpe Field? Find the distance to fly.

From to 4F2

Sunrise and sunset
Times for 19-Mar-2019
 Local
(UTC-5)
 Zulu
(UTC)
Morning civil twilight06:5911:59
Sunrise07:2312:23
Sunset19:2700:27
Evening civil twilight19:5100:51

Current date and time
Zulu (UTC)  20-Mar-2019 04:23:38
Local (UTC-5)  19-Mar-2019 23:23:38
 
METAR
KASL 
21nm N 
200355Z AUTO 00000KT 10SM SCT120 11/06 A3026 RMK AO1 T01110061
KF17 
22nm S 
200355Z AUTO 00000KT 10SM CLR 09/06 A3027 RMK AO2 T00910059
KGGG 
25nm NW 
200353Z AUTO 15005KT 10SM CLR 13/07 A3023 RMK AO2 SLP235 T01280072
K3F3 
28nm E 
200355Z AUTO 13003KT 10SM CLR 14/04 A3030 RMK AO2 T01390040
KRFI 
28nm W 
200355Z AUTO 00000KT 10SM CLR 11/07 A3025 RMK AO2 T01050068
KSHV 
29nm NE 
200356Z 13005KT 10SM CLR 13/03 A3025 RMK AO2 SLP243 T01330033
KDTN 
36nm NE 
200353Z AUTO 13008KT 10SM CLR 13/04 A3026 RMK AO2 SLP244 T01330039
KBAD 
37nm NE 
200356Z AUTO 13005KT 10SM CLR 12/04 A3025 RMK AO2 SLP246 T01160036
TAF
KGGG 
25nm NW 
191722Z 1918/2018 13005KT P6SM SKC FM201500 21006KT P6SM BKN250 FM201700 26010KT P6SM BKN150
KSHV 
29nm NE 
191722Z 1918/2018 14010KT P6SM SCT250 FM200000 12004KT P6SM SCT060 SCT250 FM201500 22005KT P6SM BKN250
NOTAMs
Click for the latest NOTAMs
NOTAMs are issued by the DoD/FAA and will open in a separate window not controlled by AirNav.

 

 
 

FBO, Fuel Providers, and Aircraft Ground Support

  
 Business Name 
 
 Contact 
 
 Services / Description 
 
Fuel Prices
 
Comments
  
 Panola County Airport-Sharpe Field
UNICOM 122.80
903-693-7856
[web site]
[email]
Best little fuel stop in East Texas. 24/7 Credit card machine at the pump.

More info about Panola County Airport-Sharpe Field
Avfuel
100LL
SS $3.60 
GUARANTEED
 
   3 read write
SS=Self service
Update Fuel Prices
 

Would you like to see your business listed on this page?

 If your business provides an interesting product or service to pilots, flight crews, aircraft, or users of the Panola County Airport-Sharpe Field, you should consider listing it here.  To start the listing process, click on the button below
 
Add a business
 

Other Pages about Panola County Airport-Sharpe Field

www.kcchl.com/airport.html
 
Update a link
 
Copyright © AirNav, LLC. All rights reserved. Privacy Policy  Contact